Satellite-Ground Cal/Val Region Overpasses Predictions

Prediction of Satellite NPP Overpassing Cal/Val Region: PacNW

Region Location: (Latitude: 10.00, Longitude: 139.50) to (Latitude: 22.70, Longitude: 165.60).

Table of predicted overpasses for the next 14.0 days since TLE Epoch: 11/13/2016
Interval Starting Time Starting Location Ending Time Ending Location
1 11/13/2016 15:11:52 ( 22.67, 157.03) 11/13/2016 15:15:27 ( 10.05, 154.03)
2 11/14/2016 02:20:58 ( 10.06, 164.55) 11/14/2016 02:24:33 ( 22.68, 161.55)
3 11/14/2016 14:52:50 ( 22.65, 161.78) 11/14/2016 14:56:25 ( 10.03, 158.78)
4 11/15/2016 03:43:25 ( 10.03, 143.94) 11/15/2016 03:47:00 ( 22.65, 140.94)
5 11/15/2016 14:34:54 ( 18.81, 165.59) 11/15/2016 14:37:24 ( 10.00, 163.53)
6 11/15/2016 16:15:18 ( 22.68, 141.16) 11/15/2016 16:17:14 ( 15.87, 139.51)
7 11/16/2016 03:24:24 ( 10.05, 148.69) 11/16/2016 03:27:59 ( 22.68, 145.69)
8 11/16/2016 15:56:17 ( 22.65, 145.91) 11/16/2016 15:59:52 ( 10.03, 142.92)
9 11/17/2016 03:05:21 ( 10.02, 153.45) 11/17/2016 03:08:56 ( 22.64, 150.45)
10 11/17/2016 15:37:14 ( 22.69, 150.68) 11/17/2016 15:40:50 ( 10.01, 147.67)
11 11/18/2016 02:46:20 ( 10.04, 158.20) 11/18/2016 02:49:55 ( 22.67, 155.20)
12 11/18/2016 15:18:13 ( 22.66, 155.43) 11/18/2016 15:21:48 ( 10.04, 152.43)
13 11/19/2016 02:27:17 ( 10.01, 162.97) 11/19/2016 02:30:53 ( 22.69, 159.95)
14 11/19/2016 14:59:10 ( 22.70, 160.19) 11/19/2016 15:02:46 ( 10.02, 157.18)
15 11/20/2016 02:10:50 ( 19.08, 165.60) 11/20/2016 02:11:51 ( 22.66, 164.72)
16 11/20/2016 03:49:46 ( 10.04, 142.34) 11/20/2016 03:53:10 ( 22.02, 139.50)
17 11/20/2016 14:40:09 ( 22.67, 164.94) 11/20/2016 14:43:44 ( 10.05, 161.94)
18 11/20/2016 16:21:39 ( 22.67, 139.57) 11/20/2016 16:21:43 ( 22.43, 139.51)
19 11/21/2016 03:30:43 ( 10.01, 147.10) 11/21/2016 03:34:19 ( 22.69, 144.09)
20 11/21/2016 16:02:36 ( 22.70, 144.33) 11/21/2016 16:06:12 ( 10.02, 141.32)
21 11/22/2016 03:11:42 ( 10.04, 151.85) 11/22/2016 03:15:17 ( 22.66, 148.85)
22 11/22/2016 15:43:35 ( 22.67, 149.08) 11/22/2016 15:47:10 ( 10.05, 146.08)
23
